sat.trackr.live / text

‹ back to catalog

STARLINK-32434

NORAD 61913 · 2024-207B

PAYLOAD ACTIVE UNKNOWN

§ Identity

Operator
Country
US
Launch date
2024-11-11
Launch site
AFETR
Launch vehicle
Mass (kg)
RCS (m²)

Purposes: comms

External: N2YO · Heavens-Above · Gunter

§ Orbital elements

Epoch: 2026-05-25T05:24:34.342272Z

Period
94.26 min
Inclination
43.0031°
Eccentricity
0.0001106
Mean motion
15.27630647 rev/d
Perigee alt
482.1 km
Apogee alt
483.7 km
Semi-major
6,861.0 km
B*
8.3965e-4
RAAN
209.8248°
Arg perigee
269.3946°
Mean anomaly
90.6779°
Rev number
8,642

§ Raw data

STARLINK-324341 61913U 24207B   26145.22539748  .00022951  00000+0  83965-3 0  99952 61913  43.0031 209.8248 0001106 269.3946  90.6779 15.27630647 86422

JSON: /api/v1/satellites/61913 · /tle

For live sub-satellite position, see the globe view (requires WebGL).

§ Visibility from observer

Set your observer location to see the next 7 days of passes ≥ 10°. The values pass through the URL so the page stays shareable.

No JS? Fill the form by hand. The geolocation button needs JavaScript.